Weather in Pchel'na

Russia / Tula Oblast     53°52′42″N   36°41′28″E
temp.,
°C
wind,
m/s
gust,
m/s
humid.,
%
clouds,
%
prec.,
mm/h
press.,
hPa
HPBL,
m
18 may, tue
tue1800:00+18se515805 0.0 1007408
03:00+15ese410917 0.0 1007192
06:00+15ese38865 0.0 1006167
09:00+20se61165100 0.0 1007439
12:00+24ese7125263 0.0 1006755
15:00+25ese7125792 0.0 10051457
18:00+22ese81563100 0.0 1003945
21:00+17s49895 0.4 1004198
19 may, wed
wed1900:00+14se22925 0.0 100521
03:00+13se379642 0.0 1005174
06:00+14se5109367 0.1 1006469
09:00+18sse587634 0.1 1007940
12:00+20sse576386 0.5 10071567
15:00+21se6862100 1.7 10061433
18:00+19sse4778100 0.8 1006761
21:00+15ese3889100 2.3 1006165
20 may, thu
thu2000:00+13ne1194100 0.1 100410
03:00+13ese71192100 0.3 1003739
06:00+11se71391100 0.1 1003896
09:00+13sse8138748 0.1 10031044
12:00+12sse71390100 0.8 1004760
15:00+12s81390100 1.0 1005935
18:00+14ssw6118688 0.4 10071011
21:00+10sw389413 0.4 1009236
21 may, fri
fri2100:00+10wsw4893100 0.0 1010513
03:00+9wsw5993100 0.1 1011640
06:00+9wsw4995100 0.3 1012601
09:00+9w5894100 0.4 1014507
12:00+13wnw567996 0.1 1015947
15:00+17nnw365626 0.2 10141602
18:00+16wnw2470100 0.1 1015346
21:00+12wnw1176100 0.2 101710
22 may, sat
sat2200:00+11s2282100 0.0 101719
03:00+9wsw118998 0.0 101810
06:00+11ene1185100 0.0 101834
09:00+14ese3477100 0.1 1018382
12:00+14ese4677100 0.1 1019742
15:00+14e4581100 0.3 1018657
18:00+14e458195 0.0 1018573
21:00+11ene4996100 0.0 1017235